Location: Newark
(39.9581°N, 97.2014°W)
Time: 20:46:28
(UTC+00:00)

Envisat - Pass Details

Date: 25 January 2020
Orbit: 764 x 766 km, 98.1° (Epoch: 23 February)

Event Time Altitude Azimuth Distance (km) Brightness Sun altitude
Rises 12:53:13 0° 16° (NNE) 3,240 6.2 -9.8°
Reaches altitude 10° 12:55:34 10° 20° (NNE) 2,309 5.5 -9.4°
Maximum altitude 13:00:35 59° 100° (E) 878 3.7 -8.5°
Drops below altitude 10° 13:05:34 10° 180° (S) 2,292 5.7 -7.6°
Sets 13:07:54 0° 184° (S) 3,214 6.4 -7.1°
